AirNav   Air Wisconsin pilot careers
 
 1478 users online  

09M Charleston Municipal Airport
Charleston, Mississippi, USA

GOING TO CHARLESTON?


FAA INFORMATION EFFECTIVE 11 OCTOBER 2018

Location

FAA Identifier: 09M
Lat/Long: 33-59-28.9000N / 090-04-42.8000W
33-59.481667N / 090-04.713333W
33.9913611 / -90.0785556
(estimated)
Elevation: 175 ft. / 53.3 m (surveyed)
Variation: 02E (1985)
From city: 2 miles S of CHARLESTON, MS
Time zone: UTC -5 (UTC -6 during Standard Time)
Zip code: 38921

Airport Operations

Airport use: Open to the public
Control tower: no
ARTCC: MEMPHIS CENTER
FSS: GREENWOOD FLIGHT SERVICE STATION
NOTAMs facility: GWO (NOTAM-D service available)
Attendance: UNATNDD
Wind indicator: lighted
Segmented circle: no
Beacon: white-green (lighted land airport)
Operates sunset to sunrise.

Airport Communications

CTAF: 122.9
WX AWOS-3PT at GNF (17 nm SE): 118.025 (662-227-3407)

Nearby radio navigation aids

VOR radial/distance  VOR name  Freq  Var
SQSr014/33.2SIDON VORTAC114.7003E

Airport Services

Parking: tiedowns
Airframe service: NONE
Powerplant service: NONE
Bottled oxygen: NONE
Bulk oxygen: NONE

Runway Information

Runway 18/36

Dimensions: 3000 x 50 ft. / 914 x 15 m
Surface: asphalt, in excellent condition
Weight bearing capacity: 
Single wheel: 18.0
Runway edge lights: medium intensity
RUNWAY 18  RUNWAY 36
Latitude: 33-59.728240N33-59.233503N
Longitude: 090-04.711753W090-04.715030W
Elevation: 173.0 ft.176.0 ft.
Gradient: 0.1%0.1%
Traffic pattern: leftleft
Runway heading: 178 magnetic, 180 true358 magnetic, 000 true
Markings: basic, in good conditionbasic, in good condition
Obstructions: 20 ft. tree, 220 ft. from runway, 50 ft. right of centerline, 1:1 slope to clear
7 FT WILDLIFE FENCE 197 FT FROM END OF RY 18 CROSSING CNTRLN.
48 ft. pole, marked and lighted, 825 ft. from runway, 30 ft. left and right of centerline, 13:1 slope to clear

Airport Ownership and Management from official FAA records

Ownership: Publicly-owned
Owner: CITY OF CHARLESTON
PO BOX 420
CHARLESTON, MS 38921
Phone 662-647-5481
Manager: STEVE BROWN
CITY OF CHARLESTON, PO BOX 420
CHARLESTON, MS 38921
Phone 662-647-8773

Airport Operational Statistics

Aircraft based on the field: 3
Single engine airplanes: 3
    
Aircraft operations: avg 109/week *
84% local general aviation
16% transient general aviation
* for 12-month period ending 14 February 2018

Additional Remarks

A25 SPECIAL AGREEMENT.

Instrument Procedures

There are no published instrument procedures at 09M.

Some nearby airports with instrument procedures:

KGNF - Grenada Municipal Airport (17 nm SE)
KMMS - Selfs Airport (18 nm NW)
KPMU - Panola County Airport (24 nm N)
M37 - Ruleville-Drew Airport (26 nm SW)
KCKM - Fletcher Field Airport (28 nm NW)
 
Loc | Ops | Rwys | IFR | FBO | Links
Com | Nav | Svcs | Stats | Notes


 
Area around 09M (Charleston Municipal Airport)
 
Road maps at: MapQuest Bing Google
 
Aerial photo
WARNING: Photo may not be current or correct
Aerial photo of 09M (Charleston Municipal Airport)
Do you have a better or more recent aerial photo of Charleston Municipal Airport that you would like to share? If so, please send us your photo.

 
Sectional chart

 
Airport distance calculator
Flying to Charleston Municipal Airport? Find the distance to fly.

From to 09M

Sunrise and sunset
Times for 18-Oct-2018
 Local
(UTC-5)
 Zulu
(UTC)
Morning civil twilight06:4411:44
Sunrise07:0912:09
Sunset18:2223:22
Evening civil twilight18:4723:47

Current date and time
Zulu (UTC)  18-Oct-2018 18:38:16
Local (UTC-5)  18-Oct-2018 13:38:16
 
METAR
KPMU 
24nm N 
181815Z AUTO VRB06KT 10SM CLR 19/05 A3041 RMK AO2
KCKM 
28nm NW 
181815Z AUTO 01008G13KT 10SM CLR 19/05 A3042 RMK A01
KGWO 
29nm S 
181753Z AUTO 05007KT 030V100 10SM CLR 21/07 A3038 RMK AO2 SLP287 T02060067 10206 20100 58015
TAF
KGWO 
29nm S 
181732Z 1818/1918 05010KT P6SM FEW100 FM190000 02005KT P6SM SCT250
NOTAMs
Click for the latest NOTAMs
NOTAMs are issued by the DoD/FAA and will open in a separate window not controlled by AirNav.

 

 
 

Would you like to see your business listed on this page?

 If your business provides an interesting product or service to pilots, flight crews, aircraft, or users of the Charleston Municipal Airport, you should consider listing it here.  To start the listing process, click on the button below
 
Add a business
 

Other Pages about Charleston Municipal Airport

Update a link
 
Copyright © AirNav, LLC. All rights reserved. Privacy Policy  Contact